Wautoma, WI

4:07 PM CDT on July 23, 2017 (GMT -0500)
Wautoma

Weather History for KY50 - May, 2013

Change the Weather History Date:

Friday, May 10, 2013

  Actual Average (KPCZ) Record (KPCZ)
Temperature  
Mean Temperature 46 °F -  
Max Temperature 56 °F 67 °F 86 °F (1987)
Min Temperature 37 °F 40 °F 21 °F (1966)
Degree Days  
Heating Degree Days 18    
Moisture  
Dew Point 41 °F    
Average Humidity 85    
Maximum Humidity 100    
Minimum Humidity 62    
Precipitation  
Precipitation 0.18 in - - ()
Sea Level Pressure  
Sea Level Pressure 29.98 in    
Wind  
Wind Speed 11 mph (NE)    
Max Wind Speed 18 mph    
Max Gust Speed 28 mph    
Visibility 8 miles    
Events Rain    
Averages and records for this station are not official NWS values.
T = Trace of Precipitation, MM = Missing Value Source: NWS Daily Summary

Daily Weather History Graph

Daily Weather History Graph

Search for Another Location

Airport or City:

Trip Planner

Search our weather history database for the weather conditions in past years. The results will help you decide how hot, cold, wet, or windy it might be!

Date:

Astronomy

May. 10, 2013 Rise Set
Actual Time 5:36 AM CDT 8:11 PM CDT
Civil Twilight 5:03 AM CDT 8:44 PM CDT
Nautical Twilight 4:22 AM CDT 9:25 PM CDT
Astronomical Twilight 3:35 AM CDT 10:12 PM CDT
Moon 6:00 AM CDT (5/10) 9:01 PM CDT (5/10)
Length of Visible Light 15h 40m
Length of Day
14h 34m
New Moon, 0% of the Moon is Illuminated
May 10
New Moon
May 17
First Quarter
May 24
Full
May 31
Last Quarter
Jun 8
New

Hourly Weather History & Observations

Time (CDT) Temp. Windchill Dew Point Humidity Pressure Visibility Wind Dir Wind Speed Gust Speed Precip Events Conditions
12:24 AM 42.8 °F 35.8 °F 41.0 °F 93% 29.98 in 4.0 mi NE 13.8 mph 23.0 mph 0.03 in Rain Light Rain
12:36 AM 42.8 °F 36.2 °F 42.8 °F 100% 29.98 in 3.0 mi NNE 12.7 mph 19.6 mph 0.05 in Rain Rain
12:56 AM 42.8 °F 34.5 °F 41.0 °F 93% 29.97 in 5.0 mi NE 18.4 mph 25.3 mph N/A Rain Light Rain
1:03 AM 42.8 °F 35.8 °F 39.2 °F 87% 29.97 in 4.0 mi NE 13.8 mph 27.6 mph 0.01 in Rain Light Rain
1:26 AM 42.8 °F 35.8 °F 41.0 °F 93% 29.96 in 4.0 mi NE 13.8 mph 19.6 mph 0.03 in Rain Light Rain
1:56 AM 41.0 °F 33.1 °F 39.9 °F 96% 29.96 in 5.0 mi NNE 15.0 mph - 0.06 in Rain Light Rain
2:56 AM 41.0 °F 34.3 °F 39.9 °F 96% 29.96 in 3.0 mi NNE 11.5 mph - 0.09 in Rain Rain
3:56 AM 39.2 °F 31.6 °F 39.2 °F 100% 29.96 in 5.0 mi NNE 12.7 mph 17.3 mph N/A Rain Light Rain
4:56 AM 38.8 °F 31.2 °F 36.9 °F 93% 29.97 in 7.0 mi NNE 12.7 mph 20.7 mph 0.02 in Rain Light Rain
5:56 AM 37.9 °F 30.0 °F 36.9 °F 96% 29.98 in 10.0 mi NNE 12.7 mph - 0.01 in Rain Light Rain
6:56 AM 37.9 °F 30.0 °F 36.0 °F 93% 30.01 in 10.0 mi NNE 12.7 mph - 0.00 in Rain Light Rain
7:56 AM 37.9 °F 30.5 °F 36.9 °F 96% 30.01 in 10.0 mi NNE 11.5 mph - 0.00 in   Overcast
8:56 AM 37.9 °F 30.9 °F 36.0 °F 93% 30.03 in 10.0 mi NNE 10.4 mph - N/A   Overcast
9:56 AM 37.9 °F 29.6 °F 36.0 °F 93% 30.02 in 10.0 mi NNE 13.8 mph - N/A   Overcast
10:56 AM 41.0 °F 35.8 °F 37.9 °F 89% 30.04 in 10.0 mi NNE 8.1 mph - N/A   Overcast
11:56 AM 45.0 °F 39.7 °F 39.9 °F 82% 30.03 in 10.0 mi NE 10.4 mph - N/A   Overcast
12:16 PM 46.4 °F 42.4 °F 41.0 °F 81% 30.02 in 10.0 mi NNE 8.1 mph - N/A   Overcast
12:56 PM 48.9 °F - 41.0 °F 74% 30.02 in 10.0 mi NE 9.2 mph - N/A   Overcast
1:56 PM 50.9 °F - 41.9 °F 71% 30.01 in 10.0 mi North 9.2 mph - N/A   Overcast
2:56 PM 52.9 °F - 41.9 °F 66% 30.01 in 10.0 mi NE 6.9 mph - N/A   Overcast
3:56 PM 52.9 °F - 43.0 °F 69% 30.00 in 10.0 mi North 6.9 mph - N/A   Overcast
4:56 PM 54.9 °F - 43.9 °F 66% 29.98 in 10.0 mi Variable 4.6 mph - N/A   Mostly Cloudy
5:04 PM 55.4 °F - 42.8 °F 63% 29.97 in 10.0 mi NNW 4.6 mph - N/A   Scattered Clouds
5:56 PM 56.8 °F - 43.9 °F 62% 29.96 in 10.0 mi SW 4.6 mph - N/A   Partly Cloudy
6:56 PM 56.8 °F - 45.0 °F 64% 29.94 in 10.0 mi South 5.8 mph - N/A   Mostly Cloudy
7:56 PM 54.0 °F - 45.0 °F 72% 29.95 in 10.0 mi South 4.6 mph - N/A   Clear
8:56 PM 48.9 °F - 45.0 °F 86% 29.95 in 10.0 mi SE 6.9 mph - N/A   Clear
9:56 PM 46.4 °F 43.5 °F 44.6 °F 93% 29.96 in 10.0 mi SSE 5.8 mph - N/A   Clear
10:56 PM 45.9 °F 43.6 °F 43.9 °F 93% 29.95 in 10.0 mi South 4.6 mph - N/A   Clear
11:56 PM 43.9 °F - 43.0 °F 97% 29.93 in 10.0 mi Calm Calm - N/A   Clear